OV1-4 R/B, 2124

Orbit data source: Space-Track

OV1-4 R/B, 2124 is space debris in LEO originally from a launch on Wed, 30 Mar 1966 UTC launched from the Air Force Western Test Range (AFWTR). Debris objects in space refer to the collection of defunct objects orbiting the Earth. Examples of debris include non-operational satellites, rocket bodies, and fragments generated from explosions, collisions, or faulty payload assembly.

Loading next visibility...
Identifier
2124, 1966-025D
Orbit
LEO
Country
Flag of USUS
Related business
Manufacturer
ABL
Mission
Spacecraft
Bus & Motor
ALTAIR, Unknown motor
Mass
~125 kg wet, ~125 kg dry
Launch date (UTC)
1966-03-30 (59 years ago)
Launch vehicle
Unknown
Launch site
Air Force Western Test Range (AFWTR)
Object type
Payload
Rocket body
Debris
Shape & HBR
Cyl, 1.1 m
Radar Cross Section
1.347 m², Medium (>0.1 m² and < 1m²)

Expand to show TLE details & history
Last TLE update: 15 hours ago

TLE from 15 hours ago
0 OV1-4 R/B
1 02124U 66025D   25259.15905578  .00000376  00000-0  87455-4 0  9990
2 02124 144.5104 119.0098 0081027 310.4877  48.8772 13.87784532 13510
Epoch: 2025-09-16T03:49Z
TLE epoch observation values (Epoch: 2025-09-16T03:49:02.419Z)
Latitude
0.00001°
Longitude
66.39634°
Altitude
896.729 km
Speed
7.425 km/s
True Right ascension
07h 56m 02s
True Declination
0° 00' 00"
Sunlit
Object was in daylight at epoch
Visualization orbit readout
Latitude
Unknown
Longitude
Unknown
Altitude
Unknown
Speed
Unknown
Apparent Right ascension
Unknown
Apparent Declination
Unknown
Sunlit
N/A
Visualization observer readout
Local Sidereal Time
11:56:57
Azimuth
Unknown
Elevation
Unknown
Doppler factor
Unknown
Orbital elements
Apogee altitude
998.68 km
Perigee altitude
880.096 km
Semi-major axis
7,317.525 km
Eccentricity
0.0081
Inclination
144.5104°
RAAN
119.0098°
Arg. of periapsis
310.4877°
True anomaly
49.58131°
Mean anomaly
48.8772°
Eccentric anomaly
49.22879°
Mean motion
3.46734 °/min
Orbital period
103.83 mins
BSTAR
0.000087455
Loading maneuver chart data...
Computing Atmospheric mass density...
Loading historical data...
Loading historical data...
Loading historical data...
Loading historical data...
Loading historical data...
Loading historical data...
Loading historical data...

Documentation

Showing up to 5 results
|